Orbital elements:
2024 JA15                                                Earth MOID = 0.0000 AU
Epoch 2024 Mar. 31.0 TT = JDT 2460400.5                 Veres                   
M   5.64815              (2000.0)            P               Q                  
n   0.54389520     Peri.  292.63142     -0.90900652     -0.35386192             
a   1.4863665      Node   227.43692     +0.39633663     -0.89736459             
e   0.4507535      Incl.   17.39580     -0.12893574     -0.26366366             
P   1.81           H   25.11          G   0.15           U   8                  
Residuals in seconds of arc
240511 703  0.8-  1.0-    240511 L01  0.7-  0.3+    240511 K62  0.0   0.2-
240511 703  0.6-  0.4-    240511 L01  0.4-  0.3+    240511 K62  0.0   0.2-
240511 703  0.3+  0.3-    240511 L01  0.4-  0.2+    240511 K62  0.1+  0.2-
240511 I52  0.0   0.0     240511 G34  0.5+  0.3+    240511 K62  0.0   0.2+
240511 I52  0.0   0.0     240511 L65  0.3+  0.0     240511 K87  0.1-  0.2+
240511 I52  0.0   0.0     240511 104  0.0   0.4+    240511 K87  0.1-  0.2+
240511 I52  0.2+  0.0     240511 104  0.2-  0.0     240512 K87  0.2-  0.1+
240511 I52  0.1-  0.1+    240511 Z43  0.3+  0.5+    240512 K74  0.3+  0.1-
240511 I52  0.0   0.0     240511 104  0.4-  0.0     240512 K74  0.4+  0.1+
240511 I52  0.0   0.0     240511 203  0.1-  0.1-    240512 K74  0.1+  0.0
240511 I52  0.1+  0.0     240511 J69  0.4+  0.0     240512 033  0.1+  0.1+
240511 K83  0.1+  0.0     240511 Z43  1.9-  2.0+    240512 033  0.1+  0.0
240511 K83  0.0   0.2-    240511 J69  0.6+  0.1-    240512 033  0.1+  0.1-
240511 K83  0.0   0.0     240511 Z43  0.0   0.2+    240512 C95  0.1-  0.2-
240511 B72  0.1+  0.3-    240511 L65 (1.1+  0.1-)   240512 C95  0.9+  0.0
240511 B72  0.2-  0.2-    240511 203  0.2-  0.3-    240512 C95  0.1+  0.7-
240511 B72  0.3-  0.2+    240511 J69  0.7+  0.2-    240512 H21  0.1+  0.3-
240511 G34  0.1+  0.2+    240511 J69  0.3-  0.6+    240512 H21  0.3-  0.3+
240511 G34  0.1+  0.2-    240511 033  0.0   0.0     240512 H21  0.1+  0.2-
240511 G34  0.1-  0.4+    240511 033  0.1+  0.0     240512 H21  0.1+  0.4-
240511 G34  0.2+  0.2+    240511 033  0.1+  0.0     240512 H21  0.2-  0.3+
240511 L01  0.0   0.1-    240511 L65  0.5-  0.0
240511 L01  0.3-  0.2+    240511 K62  0.2-  0.5+

Ephemeris:
2024 JA15                a,e,i = 1.49, 0.45, 17                  q = 0.8164
Date    TT    R. A. (2000) Decl.     Delta      r    Elong.  Phase     V
2024 04 12    04 01 00.9 -17 54 24   0.2286  0.8640    47.3   121.4    26.5
...
2024 04 27    04 18 25.3 -18 58 31   0.09736 0.9391    44.2   131.7    25.8
...
2024 05 05    04 56 54.8 -15 55 12   0.02932 0.9881    45.1   133.7    23.5
...
2024 05 11    14 53 37.0 +25 01 11   0.02377 1.0275   136.9    42.2    18.7
2024 05 12    15 12 39.3 +24 01 32   0.03205 1.0342   137.8    41.0    19.3
2024 05 13    15 23 41.9 +23 21 13   0.04045 1.0410   138.3    40.2    19.8
...
2024 05 19    15 46 32.0 +21 29 40   0.09170 1.0823   138.7    38.1    21.6
...
2024 05 27    15 54 05.6 +20 06 38   0.1614  1.1387   138.3    36.3    22.9
...
2024 06 11    15 59 59.8 +17 17 28   0.2985  1.2457   135.4    34.9    24.4

M. P. C. Staff               (C) Copyright 2024 MPC           M.P.E.C. 2024-J278





More information about the Iaude mailing list